Location: Banff
(51.1667°N, 115.5667°W)
Time: 08:53:42
(UTC+00:00)

Explorer 7 - Pass Details

Date: 03 December 2020
Orbit: 484 x 678 km, 50.3° (Epoch: 19 January)

Event Time Altitude Azimuth Distance (km) Brightness Sun altitude
Exits shadow 11:25:41 11° 102° (ESE) 1,798 10.1 -36.8°
Drops below altitude 10° 11:25:46 10° 102° (ESE) 1,831 10.1 -36.8°
Sets 11:27:55 0° 101° (E) 2,691 11.2 -36.4°
